Year,Month,Day,Hour,Minute,Value (Times are PST for temperature in C)
2009,09,23,00,00,19.10
2009,09,23,00,01,19.10
2009,09,23,00,02,19.10
2009,09,23,00,03,19.00
2009,09,23,00,04,18.90
2009,09,23,00,05,18.90
2009,09,23,00,06,18.90
2009,09,23,00,07,18.90
2009,09,23,00,08,18.90
2009,09,23,00,09,18.90
2009,09,23,00,10,18.90
2009,09,23,00,11,18.90
2009,09,23,00,12,18.90
2009,09,23,00,13,18.90
2009,09,23,00,14,18.90
2009,09,23,00,15,18.80
2009,09,23,00,16,18.80
2009,09,23,00,17,18.80
2009,09,23,00,18,18.80
2009,09,23,00,19,18.90
2009,09,23,00,20,18.90
2009,09,23,00,21,18.90
2009,09,23,00,22,18.90
2009,09,23,00,23,18.90
2009,09,23,00,24,18.80
2009,09,23,00,25,18.80
2009,09,23,00,26,18.80
2009,09,23,00,27,18.80
2009,09,23,00,28,18.80
2009,09,23,00,29,18.80
2009,09,23,00,30,18.80
2009,09,23,00,31,18.80
2009,09,23,00,32,18.70
2009,09,23,00,33,18.70
2009,09,23,00,34,18.70
2009,09,23,00,35,18.70
2009,09,23,00,36,18.60
2009,09,23,00,37,18.60
2009,09,23,00,38,18.60
2009,09,23,00,39,18.60
2009,09,23,00,40,18.50
2009,09,23,00,41,18.50
2009,09,23,00,42,18.50
2009,09,23,00,43,18.50
2009,09,23,00,44,18.50
2009,09,23,00,45,18.50
2009,09,23,00,46,18.40
2009,09,23,00,47,18.40
2009,09,23,00,48,18.40
2009,09,23,00,49,18.40
2009,09,23,00,50,18.40
2009,09,23,00,51,18.40
2009,09,23,00,52,18.40
2009,09,23,00,53,18.40
2009,09,23,00,54,18.40
2009,09,23,00,55,18.40
2009,09,23,00,56,18.40
2009,09,23,00,57,18.40
2009,09,23,00,58,18.40
2009,09,23,00,59,18.40
2009,09,23,01,00,18.40
2009,09,23,01,01,18.40
2009,09,23,01,02,18.40
2009,09,23,01,03,18.40
2009,09,23,01,04,18.40
2009,09,23,01,05,18.40
2009,09,23,01,06,18.40
2009,09,23,01,07,18.30
2009,09,23,01,08,18.30
2009,09,23,01,09,18.30
2009,09,23,01,10,18.30
2009,09,23,01,11,18.20
2009,09,23,01,12,18.20
2009,09,23,01,13,18.20
2009,09,23,01,14,18.20
2009,09,23,01,15,18.20
2009,09,23,01,16,18.20
2009,09,23,01,17,18.20
2009,09,23,01,18,18.20
2009,09,23,01,19,18.20
2009,09,23,01,20,18.20
2009,09,23,01,21,18.20
2009,09,23,01,22,18.20
2009,09,23,01,23,18.20
2009,09,23,01,24,18.20
2009,09,23,01,25,18.20
2009,09,23,01,26,18.20
2009,09,23,01,27,18.20
2009,09,23,01,28,18.10
2009,09,23,01,29,18.10
2009,09,23,01,30,18.10
2009,09,23,01,31,18.00
2009,09,23,01,32,17.90
2009,09,23,01,33,17.90
2009,09,23,01,34,17.90
2009,09,23,01,35,17.90
2009,09,23,01,36,17.80
2009,09,23,01,37,17.70
2009,09,23,01,38,17.70
2009,09,23,01,39,17.60
2009,09,23,01,40,17.50
2009,09,23,01,41,17.40
2009,09,23,01,42,17.30
2009,09,23,01,43,17.30
2009,09,23,01,44,17.30
2009,09,23,01,45,17.20
2009,09,23,01,46,17.10
2009,09,23,01,47,17.10
2009,09,23,01,48,17.00
2009,09,23,01,49,17.00
2009,09,23,01,50,17.00
2009,09,23,01,51,17.00
2009,09,23,01,52,17.00
2009,09,23,01,53,16.90
2009,09,23,01,54,16.90
2009,09,23,01,55,16.90
2009,09,23,01,56,16.90
2009,09,23,01,57,16.80
2009,09,23,01,58,16.80
2009,09,23,01,59,16.80
2009,09,23,02,00,16.90
2009,09,23,02,01,16.90
2009,09,23,02,02,16.90
2009,09,23,02,03,16.90
2009,09,23,02,04,17.00
2009,09,23,02,05,17.00
2009,09,23,02,06,17.00
2009,09,23,02,07,17.00
2009,09,23,02,08,17.00
2009,09,23,02,09,17.10
2009,09,23,02,10,17.10
2009,09,23,02,11,17.10
2009,09,23,02,12,17.10
2009,09,23,02,13,17.10
2009,09,23,02,14,17.10
2009,09,23,02,15,17.10
2009,09,23,02,16,17.10
2009,09,23,02,17,17.10
2009,09,23,02,18,17.10
2009,09,23,02,19,17.00
2009,09,23,02,20,17.00
2009,09,23,02,21,17.00
2009,09,23,02,22,17.00
2009,09,23,02,23,17.00
2009,09,23,02,24,17.00
2009,09,23,02,25,17.00
2009,09,23,02,26,17.00
2009,09,23,02,27,17.00
2009,09,23,02,28,17.00
2009,09,23,02,29,17.00
2009,09,23,02,30,16.90
2009,09,23,02,31,16.90
2009,09,23,02,32,16.90
2009,09,23,02,33,16.90
2009,09,23,02,34,16.90
2009,09,23,02,35,16.80
2009,09,23,02,36,16.80
2009,09,23,02,37,16.80
2009,09,23,02,38,16.70
2009,09,23,02,39,16.70
2009,09,23,02,40,16.70
2009,09,23,02,41,16.70
2009,09,23,02,42,16.70
2009,09,23,02,43,16.60
2009,09,23,02,44,16.60
2009,09,23,02,45,16.60
2009,09,23,02,46,16.40
2009,09,23,02,47,16.40
2009,09,23,02,48,16.40
2009,09,23,02,49,16.40
2009,09,23,02,50,16.40
2009,09,23,02,51,16.40
2009,09,23,02,52,16.40
2009,09,23,02,53,16.40
2009,09,23,02,54,16.30
2009,09,23,02,55,16.30
2009,09,23,02,56,16.30
2009,09,23,02,57,16.20
2009,09,23,02,58,16.30
2009,09,23,02,59,16.30
2009,09,23,03,00,16.40
2009,09,23,03,01,16.40
2009,09,23,03,02,16.50
2009,09,23,03,03,16.60
2009,09,23,03,04,16.60
2009,09,23,03,05,16.70
2009,09,23,03,06,16.70
2009,09,23,03,07,16.70
2009,09,23,03,08,16.70
2009,09,23,03,09,16.70
2009,09,23,03,10,16.70
2009,09,23,03,11,16.70
2009,09,23,03,12,16.70
2009,09,23,03,13,16.70
2009,09,23,03,14,16.60
2009,09,23,03,15,16.60
2009,09,23,03,16,16.60
2009,09,23,03,17,16.50
2009,09,23,03,18,16.40
2009,09,23,03,19,16.40
2009,09,23,03,20,16.40
2009,09,23,03,21,16.30
2009,09,23,03,22,16.30
2009,09,23,03,23,16.20
2009,09,23,03,24,16.10
2009,09,23,03,25,16.10
2009,09,23,03,26,16.00
2009,09,23,03,27,15.90
2009,09,23,03,28,15.90
2009,09,23,03,29,15.80
2009,09,23,03,30,15.80
2009,09,23,03,31,15.70
2009,09,23,03,32,15.70
2009,09,23,03,33,15.70
2009,09,23,03,34,15.60
2009,09,23,03,35,15.60
2009,09,23,03,36,15.50
2009,09,23,03,37,15.50
2009,09,23,03,38,15.50
2009,09,23,03,39,15.50
2009,09,23,03,40,15.50
2009,09,23,03,41,15.50
2009,09,23,03,42,15.50
2009,09,23,03,43,15.50
2009,09,23,03,44,15.50
2009,09,23,03,45,15.50
2009,09,23,03,46,15.50
2009,09,23,03,47,15.50
2009,09,23,03,48,15.50
2009,09,23,03,49,15.40
2009,09,23,03,50,15.40
2009,09,23,03,51,15.30
2009,09,23,03,52,15.30
2009,09,23,03,53,15.30
2009,09,23,03,54,15.30
2009,09,23,03,55,15.30
2009,09,23,03,56,15.30
2009,09,23,03,57,15.30
2009,09,23,03,58,15.30
2009,09,23,03,59,15.30
2009,09,23,04,00,15.30
2009,09,23,04,01,15.30
2009,09,23,04,02,15.30
2009,09,23,04,03,15.30
2009,09,23,04,04,15.30
2009,09,23,04,05,15.30
2009,09,23,04,06,15.30
2009,09,23,04,07,15.30
2009,09,23,04,08,15.30
2009,09,23,04,09,15.30
2009,09,23,04,10,15.30
2009,09,23,04,11,15.30
2009,09,23,04,12,15.30
2009,09,23,04,13,15.30
2009,09,23,04,14,15.30
2009,09,23,04,15,15.30
2009,09,23,04,16,15.20
2009,09,23,04,17,15.20
2009,09,23,04,18,15.20
2009,09,23,04,19,15.20
2009,09,23,04,20,15.20
2009,09,23,04,21,15.20
2009,09,23,04,22,15.20
2009,09,23,04,23,15.20
2009,09,23,04,24,15.20
2009,09,23,04,25,15.20
2009,09,23,04,26,15.20
2009,09,23,04,27,15.20
2009,09,23,04,28,15.20
2009,09,23,04,29,15.20
2009,09,23,04,30,15.20
2009,09,23,04,31,15.20
2009,09,23,04,32,15.20
2009,09,23,04,33,15.20
2009,09,23,04,34,15.20
2009,09,23,04,35,15.20
2009,09,23,04,36,15.10
2009,09,23,04,37,15.10
2009,09,23,04,38,15.10
2009,09,23,04,39,15.10
2009,09,23,04,40,15.10
2009,09,23,04,41,15.10
2009,09,23,04,42,15.10
2009,09,23,04,43,15.10
2009,09,23,04,44,15.10
2009,09,23,04,45,15.20
2009,09,23,04,46,15.20
2009,09,23,04,47,15.20
2009,09,23,04,48,15.20
2009,09,23,04,49,15.20
2009,09,23,04,50,15.20
2009,09,23,04,51,15.20
2009,09,23,04,52,15.20
2009,09,23,04,53,15.20
2009,09,23,04,54,15.20
2009,09,23,04,55,15.10
2009,09,23,04,56,15.10
2009,09,23,04,57,15.10
2009,09,23,04,58,15.10
2009,09,23,04,59,15.20
2009,09,23,05,00,15.20
2009,09,23,05,01,15.20
2009,09,23,05,02,15.30
2009,09,23,05,03,15.30
2009,09,23,05,04,15.40
2009,09,23,05,05,15.40
2009,09,23,05,06,15.50
2009,09,23,05,07,15.50
2009,09,23,05,08,15.60
2009,09,23,05,09,15.60
2009,09,23,05,10,15.60
2009,09,23,05,11,15.60
2009,09,23,05,12,15.60
2009,09,23,05,13,15.80
2009,09,23,05,14,15.90
2009,09,23,05,15,15.90
2009,09,23,05,16,15.90
2009,09,23,05,17,16.10
2009,09,23,05,18,16.10
2009,09,23,05,19,16.10
2009,09,23,05,20,16.10
2009,09,23,05,21,16.10
2009,09,23,05,22,16.10
2009,09,23,05,23,16.10
2009,09,23,05,24,16.10
2009,09,23,05,25,16.10
2009,09,23,05,26,16.10
2009,09,23,05,27,16.10
2009,09,23,05,28,16.10
2009,09,23,05,29,16.10
2009,09,23,05,30,16.10
2009,09,23,05,31,16.10
2009,09,23,05,32,16.10
2009,09,23,05,33,16.00
2009,09,23,05,34,15.90
2009,09,23,05,35,15.90
2009,09,23,05,36,15.90
2009,09,23,05,37,15.80
2009,09,23,05,38,15.80
2009,09,23,05,39,15.80
2009,09,23,05,40,15.80
2009,09,23,05,41,15.70
2009,09,23,05,42,15.70
2009,09,23,05,43,15.70
2009,09,23,05,44,15.60
2009,09,23,05,45,15.60
2009,09,23,05,46,15.60
2009,09,23,05,47,15.50
2009,09,23,05,48,15.50
2009,09,23,05,49,15.50
2009,09,23,05,50,15.50
2009,09,23,05,51,15.50
2009,09,23,05,52,15.50
2009,09,23,05,53,15.40
2009,09,23,05,54,15.40
2009,09,23,05,55,15.40
2009,09,23,05,56,15.40
2009,09,23,05,57,15.40
2009,09,23,05,58,15.40
2009,09,23,05,59,15.30
2009,09,23,06,00,15.30
2009,09,23,06,01,15.30
2009,09,23,06,02,15.20
2009,09,23,06,03,15.20
2009,09,23,06,04,15.20
2009,09,23,06,05,15.10
2009,09,23,06,06,15.10
2009,09,23,06,07,15.00
2009,09,23,06,08,15.00
2009,09,23,06,09,14.90
2009,09,23,06,10,14.90
2009,09,23,06,11,14.90
2009,09,23,06,12,14.80
2009,09,23,06,13,14.80
2009,09,23,06,14,14.80
2009,09,23,06,15,14.80
2009,09,23,06,16,14.80
2009,09,23,06,17,14.80
2009,09,23,06,18,14.80
2009,09,23,06,19,14.90
2009,09,23,06,20,15.00
2009,09,23,06,21,15.00
2009,09,23,06,22,15.00
2009,09,23,06,23,15.10
2009,09,23,06,24,15.10
2009,09,23,06,25,15.10
2009,09,23,06,26,15.10
2009,09,23,06,27,15.10
2009,09,23,06,28,15.10
2009,09,23,06,29,15.10
2009,09,23,06,30,15.10
2009,09,23,06,31,15.10
2009,09,23,06,32,15.20
2009,09,23,06,33,15.20
2009,09,23,06,34,15.20
2009,09,23,06,35,15.20
2009,09,23,06,36,15.20
2009,09,23,06,37,15.20
2009,09,23,06,38,15.20
2009,09,23,06,39,15.30
2009,09,23,06,40,15.30
2009,09,23,06,41,15.30
2009,09,23,06,42,15.30
2009,09,23,06,43,15.30
2009,09,23,06,44,15.30
2009,09,23,06,45,15.30
2009,09,23,06,46,15.30
2009,09,23,06,47,15.30
2009,09,23,06,48,15.20
2009,09,23,06,49,15.20
2009,09,23,06,50,15.10
2009,09,23,06,51,15.10
2009,09,23,06,52,15.00
2009,09,23,06,53,15.00
2009,09,23,06,54,15.00
2009,09,23,06,55,15.00
2009,09,23,06,56,15.10
2009,09,23,06,57,15.10
2009,09,23,06,58,15.10
2009,09,23,06,59,15.10
2009,09,23,07,00,15.10
2009,09,23,07,01,15.20
2009,09,23,07,02,15.20
2009,09,23,07,03,15.20
2009,09,23,07,04,15.20
2009,09,23,07,05,15.30
2009,09,23,07,06,15.30
2009,09,23,07,07,15.30
2009,09,23,07,08,15.40
2009,09,23,07,09,15.40
2009,09,23,07,10,15.40
2009,09,23,07,11,15.50
2009,09,23,07,12,15.50
2009,09,23,07,13,15.50
2009,09,23,07,14,15.50
2009,09,23,07,15,15.50
2009,09,23,07,16,15.50
2009,09,23,07,17,15.50
2009,09,23,07,18,15.40
2009,09,23,07,19,15.40
2009,09,23,07,20,15.30
2009,09,23,07,21,15.30
2009,09,23,07,22,15.30
2009,09,23,07,23,15.20
2009,09,23,07,24,15.20
2009,09,23,07,25,15.20
2009,09,23,07,26,15.20
2009,09,23,07,27,15.20
2009,09,23,07,28,15.20
2009,09,23,07,29,15.10
2009,09,23,07,30,15.10
2009,09,23,07,31,15.10
2009,09,23,07,32,15.20
2009,09,23,07,33,15.20
2009,09,23,07,34,15.30
2009,09,23,07,35,15.30
2009,09,23,07,36,15.30
2009,09,23,07,37,15.30
2009,09,23,07,38,15.40
2009,09,23,07,39,15.40
2009,09,23,07,40,15.40
2009,09,23,07,41,15.50
2009,09,23,07,42,15.50
2009,09,23,07,43,15.50
2009,09,23,07,44,15.60
2009,09,23,07,45,15.60
2009,09,23,07,46,15.70
2009,09,23,07,47,15.70
2009,09,23,07,48,15.70
2009,09,23,07,49,15.80
2009,09,23,07,50,15.80
2009,09,23,07,51,15.80
2009,09,23,07,52,15.80
2009,09,23,07,53,15.80
2009,09,23,07,54,15.80
2009,09,23,07,55,15.90
2009,09,23,07,56,15.90
2009,09,23,07,57,16.10
2009,09,23,07,58,16.10
2009,09,23,07,59,16.10
2009,09,23,08,00,16.10
2009,09,23,08,01,16.20
2009,09,23,08,02,16.30
2009,09,23,08,03,16.30
2009,09,23,08,04,16.40
2009,09,23,08,05,16.40
2009,09,23,08,06,16.60
2009,09,23,08,07,16.60
2009,09,23,08,08,16.70
2009,09,23,08,09,16.70
2009,09,23,08,10,16.80
2009,09,23,08,11,16.90
2009,09,23,08,12,16.90
2009,09,23,08,13,17.00
2009,09,23,08,14,17.10
2009,09,23,08,15,17.20
2009,09,23,08,16,17.30
2009,09,23,08,17,17.30
2009,09,23,08,18,17.40
2009,09,23,08,19,17.50
2009,09,23,08,20,17.50
2009,09,23,08,21,17.50
2009,09,23,08,22,17.60
2009,09,23,08,23,17.60
2009,09,23,08,24,17.60
2009,09,23,08,25,17.70
2009,09,23,08,26,17.70
2009,09,23,08,27,17.70
2009,09,23,08,28,17.70
2009,09,23,08,29,17.80
2009,09,23,08,30,17.90
2009,09,23,08,31,17.90
2009,09,23,08,32,17.90
2009,09,23,08,33,17.90
2009,09,23,08,34,17.90
2009,09,23,08,35,17.90
2009,09,23,08,36,17.90
2009,09,23,08,37,17.90
2009,09,23,08,38,17.80
2009,09,23,08,39,17.80
2009,09,23,08,40,17.80
2009,09,23,08,41,17.80
2009,09,23,08,42,17.80
2009,09,23,08,43,17.80
2009,09,23,08,44,17.80
2009,09,23,08,45,17.80
2009,09,23,08,46,17.80
2009,09,23,08,47,17.80
2009,09,23,08,48,17.90
2009,09,23,08,49,17.90
2009,09,23,08,50,17.90
2009,09,23,08,51,17.90
2009,09,23,08,52,18.00
2009,09,23,08,53,18.10
2009,09,23,08,54,18.10
2009,09,23,08,55,18.20
2009,09,23,08,56,18.20
2009,09,23,08,57,18.20
2009,09,23,08,58,18.20
2009,09,23,08,59,18.20
2009,09,23,09,00,18.20
2009,09,23,09,01,18.20
2009,09,23,09,02,18.30
2009,09,23,09,03,18.30
2009,09,23,09,04,18.30
2009,09,23,09,05,18.30
2009,09,23,09,06,18.30
2009,09,23,09,07,18.30
2009,09,23,09,08,18.30
2009,09,23,09,09,18.30
2009,09,23,09,10,18.30
2009,09,23,09,11,18.30
2009,09,23,09,12,18.20
2009,09,23,09,13,18.20
2009,09,23,09,14,18.20
2009,09,23,09,15,18.20
2009,09,23,09,16,18.20
2009,09,23,09,17,18.20
2009,09,23,09,18,18.20
2009,09,23,09,19,18.20
2009,09,23,09,20,18.20
2009,09,23,09,21,18.20
2009,09,23,09,22,18.30
2009,09,23,09,23,18.40
2009,09,23,09,24,18.40
2009,09,23,09,25,18.50
2009,09,23,09,26,18.60
2009,09,23,09,27,18.60
2009,09,23,09,28,18.70
2009,09,23,09,29,18.70
2009,09,23,09,30,18.70
2009,09,23,09,31,18.70
2009,09,23,09,32,18.80
2009,09,23,09,33,18.90
2009,09,23,09,34,19.00
2009,09,23,09,35,19.10
2009,09,23,09,36,19.20
2009,09,23,09,37,19.30
2009,09,23,09,38,19.40
2009,09,23,09,39,19.60
2009,09,23,09,40,19.70
2009,09,23,09,41,19.80
2009,09,23,09,42,19.90
2009,09,23,09,43,19.90
2009,09,23,09,44,20.00
2009,09,23,09,45,20.10
2009,09,23,09,46,20.10
2009,09,23,09,47,20.10
2009,09,23,09,48,20.20
2009,09,23,09,49,20.20
2009,09,23,09,50,20.20
2009,09,23,09,51,20.20
2009,09,23,09,52,20.20
2009,09,23,09,53,20.20
2009,09,23,09,54,20.30
2009,09,23,09,55,20.40
2009,09,23,09,56,20.40
2009,09,23,09,57,20.50
2009,09,23,09,58,20.60
2009,09,23,09,59,20.70
2009,09,23,10,00,20.70
2009,09,23,10,01,20.80
2009,09,23,10,02,20.90
2009,09,23,10,03,21.00
2009,09,23,10,04,21.00
2009,09,23,10,05,21.00
2009,09,23,10,06,21.00
2009,09,23,10,07,21.00
2009,09,23,10,08,21.00
2009,09,23,10,09,21.00
2009,09,23,10,10,21.00
2009,09,23,10,11,20.90
2009,09,23,10,12,20.90
2009,09,23,10,13,20.80
2009,09,23,10,14,20.80
2009,09,23,10,15,20.80
2009,09,23,10,16,20.80
2009,09,23,10,17,20.80
2009,09,23,10,18,20.70
2009,09,23,10,19,20.70
2009,09,23,10,20,20.80
2009,09,23,10,21,20.80
2009,09,23,10,22,20.90
2009,09,23,10,23,20.90
2009,09,23,10,24,20.90
2009,09,23,10,25,20.80
2009,09,23,10,26,20.80
2009,09,23,10,27,20.80
2009,09,23,10,28,20.80
2009,09,23,10,29,20.80
2009,09,23,10,30,20.80
2009,09,23,10,31,20.80
2009,09,23,10,32,20.90
2009,09,23,10,33,20.90
2009,09,23,10,34,21.00
2009,09,23,10,35,21.00
2009,09,23,10,36,21.10
2009,09,23,10,37,21.10
2009,09,23,10,38,21.20
2009,09,23,10,39,21.30
2009,09,23,10,40,21.30
2009,09,23,10,41,21.30
2009,09,23,10,42,21.30
2009,09,23,10,43,21.30
2009,09,23,10,44,21.30
2009,09,23,10,45,21.30
2009,09,23,10,46,21.30
2009,09,23,10,47,21.30
2009,09,23,10,48,21.30
2009,09,23,10,49,21.40
2009,09,23,10,50,21.50
2009,09,23,10,51,21.60
2009,09,23,10,52,21.50
2009,09,23,10,53,21.40
2009,09,23,10,54,21.20
2009,09,23,10,55,21.10
2009,09,23,10,56,21.00
2009,09,23,10,57,20.80
2009,09,23,10,58,20.70
2009,09,23,10,59,20.50
2009,09,23,11,00,20.50
2009,09,23,11,01,20.50
2009,09,23,11,02,20.50
2009,09,23,11,03,20.50
2009,09,23,11,04,20.60
2009,09,23,11,05,20.80
2009,09,23,11,06,20.80
2009,09,23,11,07,20.90
2009,09,23,11,08,20.90
2009,09,23,11,09,20.90
2009,09,23,11,10,20.80
2009,09,23,11,11,20.70
2009,09,23,11,12,20.60
2009,09,23,11,13,20.50
2009,09,23,11,14,20.30
2009,09,23,11,15,20.30
2009,09,23,11,16,20.30
2009,09,23,11,17,20.30
2009,09,23,11,18,20.40
2009,09,23,11,19,20.50
2009,09,23,11,20,20.50
2009,09,23,11,21,20.50
2009,09,23,11,22,20.60
2009,09,23,11,23,20.70
2009,09,23,11,24,20.70
2009,09,23,11,25,20.80
2009,09,23,11,26,20.80
2009,09,23,11,27,20.90
2009,09,23,11,28,21.00
2009,09,23,11,29,21.00
2009,09,23,11,30,21.10
2009,09,23,11,31,21.20
2009,09,23,11,32,21.20
2009,09,23,11,33,21.20
2009,09,23,11,34,21.30
2009,09,23,11,35,21.30
2009,09,23,11,36,21.30
2009,09,23,11,37,21.50
2009,09,23,11,38,21.60
2009,09,23,11,39,21.70
2009,09,23,11,40,21.70
2009,09,23,11,41,21.80
2009,09,23,11,42,21.90
2009,09,23,11,43,22.00
2009,09,23,11,44,22.00
2009,09,23,11,45,22.10
2009,09,23,11,46,22.10
2009,09,23,11,47,22.00
2009,09,23,11,48,22.00
2009,09,23,11,49,21.90
2009,09,23,11,50,21.90
2009,09,23,11,51,22.00
2009,09,23,11,52,22.00
2009,09,23,11,53,22.00
2009,09,23,11,54,21.90
2009,09,23,11,55,21.80
2009,09,23,11,56,21.80
2009,09,23,11,57,21.80
2009,09,23,11,58,21.90
2009,09,23,11,59,22.00
2009,09,23,12,00,22.00
2009,09,23,12,01,22.00
2009,09,23,12,02,22.00
2009,09,23,12,03,21.90
2009,09,23,12,04,21.80
2009,09,23,12,05,21.80
2009,09,23,12,06,21.80
2009,09,23,12,07,21.90
2009,09,23,12,08,22.00
2009,09,23,12,09,22.10
2009,09,23,12,10,22.20
2009,09,23,12,11,22.30
2009,09,23,12,12,22.40
2009,09,23,12,13,22.50
2009,09,23,12,14,22.60
2009,09,23,12,15,22.80
2009,09,23,12,16,22.90
2009,09,23,12,17,23.00
2009,09,23,12,18,23.10
2009,09,23,12,19,23.10
2009,09,23,12,20,23.20
2009,09,23,12,21,23.20
2009,09,23,12,22,23.30
2009,09,23,12,23,23.40
2009,09,23,12,24,23.40
2009,09,23,12,25,23.40
2009,09,23,12,26,23.40
2009,09,23,12,27,23.40
2009,09,23,12,28,23.30
2009,09,23,12,29,23.30
2009,09,23,12,30,23.30
2009,09,23,12,31,23.30
2009,09,23,12,32,23.30
2009,09,23,12,33,23.30
2009,09,23,12,34,23.40
2009,09,23,12,35,23.40
2009,09,23,12,36,23.60
2009,09,23,12,37,23.60
2009,09,23,12,38,23.70
2009,09,23,12,39,23.70
2009,09,23,12,40,23.70
2009,09,23,12,41,23.80
2009,09,23,12,42,23.80
2009,09,23,12,43,23.80
2009,09,23,12,44,23.90
2009,09,23,12,45,23.90
2009,09,23,12,46,23.90
2009,09,23,12,47,24.00
2009,09,23,12,48,24.10
2009,09,23,12,49,24.10
2009,09,23,12,50,24.20
2009,09,23,12,51,24.20
2009,09,23,12,52,24.30
2009,09,23,12,53,24.30
2009,09,23,12,54,24.40
2009,09,23,12,55,24.40
2009,09,23,12,56,24.50
2009,09,23,12,57,24.60
2009,09,23,12,58,24.60
2009,09,23,12,59,24.50
2009,09,23,13,00,24.40
2009,09,23,13,01,24.20
2009,09,23,13,02,24.10
2009,09,23,13,03,24.00
2009,09,23,13,04,23.90
2009,09,23,13,05,23.90
2009,09,23,13,06,23.90
2009,09,23,13,07,24.00
2009,09,23,13,08,24.10
2009,09,23,13,09,24.10
2009,09,23,13,10,24.10
2009,09,23,13,11,24.10
2009,09,23,13,12,24.20
2009,09,23,13,13,24.20
2009,09,23,13,14,24.20
2009,09,23,13,15,24.10
2009,09,23,13,16,24.10
2009,09,23,13,17,24.10
2009,09,23,13,18,24.10
2009,09,23,13,19,24.10
2009,09,23,13,20,24.10
2009,09,23,13,21,24.10
2009,09,23,13,22,24.20
2009,09,23,13,23,24.20
2009,09,23,13,24,24.20
2009,09,23,13,25,24.20
2009,09,23,13,26,24.20
2009,09,23,13,27,24.20
2009,09,23,13,28,24.10
2009,09,23,13,29,24.10
2009,09,23,13,30,24.00
2009,09,23,13,31,23.90
2009,09,23,13,32,23.90
2009,09,23,13,33,24.00
2009,09,23,13,34,24.10
2009,09,23,13,35,24.10
2009,09,23,13,36,24.20
2009,09,23,13,37,24.30
2009,09,23,13,38,24.40
2009,09,23,13,39,24.40
2009,09,23,13,40,24.40
2009,09,23,13,41,24.40
2009,09,23,13,42,24.40
2009,09,23,13,43,24.50
2009,09,23,13,44,24.50
2009,09,23,13,45,24.50
2009,09,23,13,46,24.50
2009,09,23,13,47,24.60
2009,09,23,13,48,24.70
2009,09,23,13,49,24.70
2009,09,23,13,50,24.80
2009,09,23,13,51,24.80
2009,09,23,13,52,24.80
2009,09,23,13,53,24.90
2009,09,23,13,54,24.90
2009,09,23,13,55,24.90
2009,09,23,13,56,24.80
2009,09,23,13,57,24.80
2009,09,23,13,58,24.80
2009,09,23,13,59,24.80
2009,09,23,14,00,24.80
2009,09,23,14,01,24.80
2009,09,23,14,02,24.70
2009,09,23,14,03,24.60
2009,09,23,14,04,24.50
2009,09,23,14,05,24.40
2009,09,23,14,06,24.20
2009,09,23,14,07,24.10
2009,09,23,14,08,24.10
2009,09,23,14,09,24.10
2009,09,23,14,10,24.10
2009,09,23,14,11,24.10
2009,09,23,14,12,24.10
2009,09,23,14,13,24.10
2009,09,23,14,14,24.10
2009,09,23,14,15,24.20
2009,09,23,14,16,24.30
2009,09,23,14,17,24.40
2009,09,23,14,18,24.50
2009,09,23,14,19,24.50
2009,09,23,14,20,24.50
2009,09,23,14,21,24.50
2009,09,23,14,22,24.40
2009,09,23,14,23,24.40
2009,09,23,14,24,24.40
2009,09,23,14,25,24.50
2009,09,23,14,26,24.50
2009,09,23,14,27,24.50
2009,09,23,14,28,24.50
2009,09,23,14,29,24.50
2009,09,23,14,30,24.60
2009,09,23,14,31,24.50
2009,09,23,14,32,24.60
2009,09,23,14,33,24.60
2009,09,23,14,34,24.70
2009,09,23,14,35,24.80
2009,09,23,14,36,24.80
2009,09,23,14,37,24.90
2009,09,23,14,38,25.00
2009,09,23,14,39,25.20
2009,09,23,14,40,25.30
2009,09,23,14,41,25.30
2009,09,23,14,42,25.40
2009,09,23,14,43,25.60
2009,09,23,14,44,25.60
2009,09,23,14,45,25.70
2009,09,23,14,46,25.70
2009,09,23,14,47,25.80
2009,09,23,14,48,25.70
2009,09,23,14,49,25.70
2009,09,23,14,50,25.70
2009,09,23,14,51,25.60
2009,09,23,14,52,25.60
2009,09,23,14,53,25.60
2009,09,23,14,54,25.70
2009,09,23,14,55,25.70
2009,09,23,14,56,25.70
2009,09,23,14,57,25.70
2009,09,23,14,58,25.60
2009,09,23,14,59,25.40
2009,09,23,15,00,25.30
2009,09,23,15,01,25.30
2009,09,23,15,02,25.10
2009,09,23,15,03,24.80
2009,09,23,15,04,24.40
2009,09,23,15,05,24.20
2009,09,23,15,06,24.10
2009,09,23,15,07,24.10
2009,09,23,15,08,24.10
2009,09,23,15,09,24.10
2009,09,23,15,10,23.90
2009,09,23,15,11,23.80
2009,09,23,15,12,23.80
2009,09,23,15,13,23.70
2009,09,23,15,14,23.80
2009,09,23,15,15,23.90
2009,09,23,15,16,24.00
2009,09,23,15,17,24.10
2009,09,23,15,18,24.20
2009,09,23,15,19,24.40
2009,09,23,15,20,24.50
2009,09,23,15,21,24.60
2009,09,23,15,22,24.80
2009,09,23,15,23,24.90
2009,09,23,15,24,25.00
2009,09,23,15,25,25.10
2009,09,23,15,26,25.20
2009,09,23,15,27,25.30
2009,09,23,15,28,25.30
2009,09,23,15,29,25.30
2009,09,23,15,30,25.20
2009,09,23,15,31,25.10
2009,09,23,15,32,25.10
2009,09,23,15,33,25.00
2009,09,23,15,34,24.90
2009,09,23,15,35,24.80
2009,09,23,15,36,24.70
2009,09,23,15,37,24.60
2009,09,23,15,38,24.50
2009,09,23,15,39,24.50
2009,09,23,15,40,24.50
2009,09,23,15,41,24.50
2009,09,23,15,42,24.40
2009,09,23,15,43,24.40
2009,09,23,15,44,24.50
2009,09,23,15,45,24.60
2009,09,23,15,46,24.60
2009,09,23,15,47,24.70
2009,09,23,15,48,24.80
2009,09,23,15,49,24.90
2009,09,23,15,50,25.00
2009,09,23,15,51,25.00
2009,09,23,15,52,24.90
2009,09,23,15,53,24.90
2009,09,23,15,54,24.80
2009,09,23,15,55,24.80
2009,09,23,15,56,24.80
2009,09,23,15,57,24.60
2009,09,23,15,58,24.50
2009,09,23,15,59,24.40
2009,09,23,16,00,24.40
2009,09,23,16,01,24.50
2009,09,23,16,02,24.50
2009,09,23,16,03,24.50
2009,09,23,16,04,24.50
2009,09,23,16,05,24.50
2009,09,23,16,06,24.40
2009,09,23,16,07,24.40
2009,09,23,16,08,24.40
2009,09,23,16,09,24.50
2009,09,23,16,10,24.50
2009,09,23,16,11,24.60
2009,09,23,16,12,24.60
2009,09,23,16,13,24.70
2009,09,23,16,14,24.70
2009,09,23,16,15,24.70
2009,09,23,16,16,24.70
2009,09,23,16,17,24.70
2009,09,23,16,18,24.80
2009,09,23,16,19,24.80
2009,09,23,16,20,24.80
2009,09,23,16,21,24.80
2009,09,23,16,22,24.80
2009,09,23,16,23,24.80
2009,09,23,16,24,24.80
2009,09,23,16,25,24.80
2009,09,23,16,26,24.80
2009,09,23,16,27,24.80
2009,09,23,16,28,24.80
2009,09,23,16,29,24.80
2009,09,23,16,30,24.80
2009,09,23,16,31,24.90
2009,09,23,16,32,24.90
2009,09,23,16,33,24.90
2009,09,23,16,34,24.90
2009,09,23,16,35,25.00
2009,09,23,16,36,25.10
2009,09,23,16,37,25.10
2009,09,23,16,38,25.20
2009,09,23,16,39,25.20
2009,09,23,16,40,25.30
2009,09,23,16,41,25.30
2009,09,23,16,42,25.40
2009,09,23,16,43,25.40
2009,09,23,16,44,25.40
2009,09,23,16,45,25.50
2009,09,23,16,46,25.50
2009,09,23,16,47,25.60
2009,09,23,16,48,25.60
2009,09,23,16,49,25.60
2009,09,23,16,50,25.70
2009,09,23,16,51,25.70
2009,09,23,16,52,25.80
2009,09,23,16,53,25.80
2009,09,23,16,54,25.80
2009,09,23,16,55,25.80
2009,09,23,16,56,25.80
2009,09,23,16,57,25.90
2009,09,23,16,58,25.90
2009,09,23,16,59,25.90
2009,09,23,17,00,25.90
2009,09,23,17,01,25.90
2009,09,23,17,02,25.90
2009,09,23,17,03,25.90
2009,09,23,17,04,25.80
2009,09,23,17,05,25.80
2009,09,23,17,06,25.80
2009,09,23,17,07,25.70
2009,09,23,17,08,25.60
2009,09,23,17,09,25.60
2009,09,23,17,10,25.50
2009,09,23,17,11,25.50
2009,09,23,17,12,25.40
2009,09,23,17,13,25.40
2009,09,23,17,14,25.40
2009,09,23,17,15,25.40
2009,09,23,17,16,25.40
2009,09,23,17,17,25.40
2009,09,23,17,18,25.50
2009,09,23,17,19,25.50